Location: G�ndlingen
(48.0142°N, 7.6396°E)
Time: 18:05:07
(UTC+00:00)

MetOp-B - Pass Details

Date: 05 July 2020
Orbit: 819 x 821 km, 98.7° (Epoch: 13 August)

Event Time Altitude Azimuth Distance (km) Brightness Sun altitude
Exits shadow 20:27:50 - 171° (S) 2,931 6.5 -7.9°
Reaches altitude 10° 20:29:09 10° 172° (S) 2,412 6.1 -8.1°
Maximum altitude 20:34:29 71° 257° (WSW) 869 4.4 -8.6°
Drops below altitude 10° 20:39:51 10° 342° (NNW) 2,430 7.9 -9.2°
Sets 20:42:14 0° 344° (NNW) 3,367 8.7 -9.5°
